| time (UTC) | temp F | wind direction | speed MPH | gust MPH | rain 1hr in | rain 24hr in | rain mn in | humidity % | barometer mb |
| 20260902005025 | 54 | 0 | 0.0 | 0.0 | 0.00 | 0.00 | 0.00 | 92 | 1020.3 |
| 20260902004025 | 54 | 0 | 0.0 | 0.0 | 0.00 | 0.00 | 0.00 | 94 | 1020.3 |
| 20260902003024 | 53 | 0 | 0.0 | 0.0 | 0.00 | 0.00 | 0.00 | 94 | 1020.4 |
| 20260902002024 | 54 | 0 | 0.0 | 0.0 | 0.00 | 0.00 | 0.00 | 94 | 1020.3 |
| 20260902001107 | 54 | 0 | 0.0 | 0.0 | 0.00 | 0.00 | 0.00 | 93 | 1020.2 |
| 20260902000132 | 54 | 0 | 0.0 | 0.0 | 0.00 | 0.00 | 0.00 | 93 | 1020.2 |
| 20260901235127 | 55 | 0 | 0.0 | 0.0 | 0.00 | 0.00 | 0.00 | 93 | 1020.2 |
| 20260901234126 | 55 | 0 | 0.0 | 0.0 | 0.00 | 0.00 | 0.00 | 92 | 1020.2 |
| 20260901233125 | 55 | 0 | 0.0 | 0.0 | 0.00 | 0.00 | 0.00 | 92 | 1020.2 |
| 20260901232124 | 55 | 0 | 0.0 | 0.0 | 0.00 | 0.00 | 0.00 | 92 | 1020.3 |
| 20260901231125 | 55 | 0 | 0.0 | 0.0 | 0.00 | 0.00 | 0.00 | 92 | 1020.4 |
| 20260901230120 | 55 | 0 | 0.0 | 0.0 | 0.00 | 0.00 | 0.00 | 91 | 1020.5 |
| 20260901225121 | 56 | 0 | 0.0 | 0.0 | 0.00 | 0.00 | 0.00 | 90 | 1020.4 |
| 20260901224114 | 56 | 0 | 0.0 | 0.0 | 0.00 | 0.00 | 0.00 | 87 | 1020.5 |
| 20260901223117 | 57 | 0 | 0.0 | 0.0 | 0.00 | 0.00 | 0.00 | 85 | 1020.4 |
| 20260901222117 | 57 | 0 | 0.0 | 0.0 | 0.00 | 0.00 | 0.00 | 83 | 1020.4 |
| 20260901221111 | 58 | 0 | 0.0 | 0.0 | 0.00 | 0.00 | 0.00 | 82 | 1020.4 |
| 20260901215112 | 58 | 0 | 0.0 | 0.0 | 0.00 | 0.00 | 0.00 | 80 | 1020.4 |
| 20260901214108 | 59 | 0 | 0.0 | 0.0 | 0.00 | 0.00 | 0.00 | 80 | 1020.5 |
| 20260901212109 | 59 | 0 | 0.0 | 0.0 | 0.00 | 0.00 | 0.00 | 79 | 1020.6 |
| 20260901210101 | 60 | 0 | 0.0 | 0.0 | 0.00 | 0.00 | 0.00 | 78 | 1020.6 |
| 20260901205101 | 60 | 0 | 0.0 | 0.0 | 0.00 | 0.00 | 0.00 | 78 | 1020.6 |
| 20260901204056 | 60 | 0 | 0.0 | 0.0 | 0.00 | 0.00 | 0.00 | 78 | 1020.5 |
| 20260901203100 | 61 | 0 | 0.0 | 0.0 | 0.00 | 0.00 | 0.00 | 78 | 1020.5 |
| 20260901202105 | 61 | 0 | 0.0 | 0.0 | 0.00 | 0.00 | 0.00 | 77 | 1020.4 |
| 20260901201057 | 61 | 0 | 0.0 | 0.0 | 0.00 | 0.00 | 0.00 | 76 | 1020.3 |
| 20260901195050 | 61 | 0 | 0.0 | 0.0 | 0.00 | 0.00 | 0.00 | 76 | 1020.3 |
| 20260901194043 | 61 | 0 | 0.0 | 0.0 | 0.00 | 0.00 | 0.00 | 76 | 1020.2 |
| 20260901193043 | 61 | 0 | 0.0 | 0.0 | 0.00 | 0.00 | 0.00 | 76 | 1020.1 |
| 20260901192043 | 61 | 0 | 0.0 | 0.0 | 0.00 | 0.00 | 0.00 | 75 | 1020.0 |
| 20260901191039 | 61 | 0 | 0.0 | 0.0 | 0.00 | 0.00 | 0.00 | 74 | 1019.9 |
| 20260901190030 | 62 | 0 | 0.0 | 0.0 | 0.00 | 0.00 | 0.00 | 73 | 1019.9 |
| 20260901185035 | 62 | 0 | 0.0 | 0.0 | 0.00 | 0.00 | 0.00 | 72 | 1019.9 |
| 20260901184024 | 62 | 0 | 0.0 | 0.0 | 0.00 | 0.00 | 0.00 | 70 | 1019.8 |
| 20260901183031 | 63 | 0 | 0.0 | 0.0 | 0.00 | 0.00 | 0.00 | 69 | 1019.7 |
| 20260901182023 | 64 | 0 | 0.0 | 0.0 | 0.00 | 0.00 | 0.00 | 67 | 1019.6 |
| 20260901181010 | 64 | 0 | 0.0 | 0.0 | 0.00 | 0.00 | 0.00 | 66 | 1019.7 |
| 20260901175007 | 66 | 0 | 0.0 | 0.0 | 0.00 | 0.00 | 0.00 | 62 | 1019.6 |
| 20260901174010 | 67 | 0 | 0.0 | 0.0 | 0.00 | 0.00 | 0.00 | 60 | 1019.5 |
| 20260901173006 | 67 | 0 | 0.0 | 0.0 | 0.00 | 0.00 | 0.00 | 60 | 1019.6 |
| 20260901172008 | 66 | 0 | 0.0 | 0.0 | 0.00 | 0.00 | 0.00 | 59 | 1019.7 |
| 20260901171008 | 68 | 0 | 0.0 | 0.0 | 0.00 | 0.00 | 0.00 | 56 | 1019.5 |
| 20260901170005 | 68 | 0 | 0.0 | 0.0 | 0.00 | 0.00 | 0.00 | 55 | 1019.5 |
| 20260901165004 | 68 | 0 | 0.0 | 0.0 | 0.00 | 0.00 | 0.00 | 55 | 1019.5 |
| 20260901164003 | 68 | 0 | 0.0 | 0.0 | 0.00 | 0.00 | 0.00 | 54 | 1019.3 |
| 20260901163001 | 68 | 0 | 0.0 | 0.0 | 0.00 | 0.00 | 0.00 | 54 | 1019.3 |
| 20260901162001 | 69 | 0 | 0.0 | 0.0 | 0.00 | 0.00 | 0.00 | 54 | 1019.3 |
| 20260901161002 | 69 | 0 | 0.0 | 0.0 | 0.00 | 0.00 | 0.00 | 55 | 1019.3 |
| 20260901160003 | 69 | 0 | 0.0 | 0.0 | 0.00 | 0.00 | 0.00 | 55 | 1019.3 |
| 20260901155001 | 69 | 0 | 0.0 | 0.0 | 0.00 | 0.00 | 0.00 | 54 | 1019.3 |
| 20260901154001 | 70 | 0 | 0.0 | 0.0 | 0.00 | 0.01 | 0.00 | 53 | 1019.3 |
| 20260901153001 | 70 | 0 | 0.0 | 0.0 | 0.00 | 0.01 | 0.00 | 53 | 1019.3 |
| 20260901152000 | 70 | 0 | 0.0 | 0.0 | 0.00 | 0.01 | 0.00 | 54 | 1019.4 |
| 20260901151002 | 70 | 0 | 0.0 | 0.0 | 0.00 | 0.01 | 0.00 | 53 | 1019.4 |
| 20260901150000 | 70 | 0 | 0.0 | 0.0 | 0.00 | 0.02 | 0.00 | 53 | 1019.4 |
| 20260901144959 | 70 | 0 | 0.0 | 0.0 | 0.00 | 0.02 | 0.00 | 55 | 1019.4 |
| 20260901144000 | 69 | 0 | 0.0 | 0.0 | 0.00 | 0.02 | 0.00 | 55 | 1019.4 |
| 20260901143000 | 69 | 0 | 0.0 | 0.0 | 0.00 | 0.02 | 0.00 | 57 | 1019.4 |
| 20260901141958 | 70 | 0 | 0.0 | 0.0 | 0.00 | 0.02 | 0.00 | 57 | 1019.5 |
| 20260901140959 | 69 | 0 | 0.0 | 0.0 | 0.00 | 0.02 | 0.00 | 57 | 1019.4 |
| 20260901135959 | 70 | 0 | 0.0 | 0.0 | 0.00 | 0.02 | 0.00 | 53 | 1019.4 |
| 20260901134000 | 69 | 0 | 0.0 | 0.0 | 0.00 | 0.06 | 0.00 | 58 | 1019.6 |
| 20260901131959 | 69 | 0 | 0.0 | 0.0 | 0.00 | 0.07 | 0.00 | 59 | 1019.6 |
| 20260901130959 | 70 | 0 | 0.0 | 0.0 | 0.00 | 0.07 | 0.00 | 57 | 1019.6 |
| 20260901123958 | 69 | 0 | 0.0 | 0.0 | 0.00 | 0.07 | 0.00 | 62 | 1019.8 |
| 20260901122958 | 69 | 0 | 0.0 | 0.0 | 0.00 | 0.07 | 0.00 | 61 | 1019.7 |
| 20260901121958 | 69 | 0 | 0.0 | 0.0 | 0.00 | 0.08 | 0.00 | 62 | 1019.8 |
| 20260901120958 | 68 | 0 | 0.0 | 0.0 | 0.00 | 0.24 | 0.00 | 63 | 1019.8 |
| 20260901115959 | 68 | 0 | 0.0 | 0.0 | 0.00 | 0.38 | 0.00 | 63 | 1019.8 |
| 20260901114957 | 67 | 0 | 0.0 | 0.0 | 0.00 | 0.42 | 0.00 | 69 | 1019.9 |
| 20260901113957 | 66 | 0 | 0.0 | 0.0 | 0.00 | 0.42 | 0.00 | 74 | 1019.9 |
| 20260901112957 | 66 | 0 | 0.0 | 0.0 | 0.00 | 0.42 | 0.00 | 72 | 1019.9 |
| 20260901111957 | 66 | 0 | 0.0 | 0.0 | 0.00 | 0.42 | 0.00 | 73 | 1019.9 |
| 20260901105957 | 64 | 0 | 0.0 | 0.0 | 0.00 | 0.42 | 0.00 | 76 | 1020.1 |
| 20260901104957 | 65 | 0 | 0.0 | 0.0 | 0.00 | 0.42 | 0.00 | 76 | 1020.0 |
| 20260901103957 | 66 | 0 | 0.0 | 0.0 | 0.00 | 0.42 | 0.00 | 75 | 1019.9 |
| 20260901102957 | 65 | 0 | 0.0 | 0.0 | 0.00 | 0.42 | 0.00 | 78 | 1019.9 |
| 20260901101957 | 64 | 0 | 0.0 | 0.0 | 0.00 | 0.42 | 0.00 | 81 | 1020.0 |
| 20260901100957 | 65 | 0 | 0.0 | 0.0 | 0.00 | 0.42 | 0.00 | 80 | 1020.0 |
| 20260901094957 | 65 | 0 | 0.0 | 0.0 | 0.00 | 0.42 | 0.00 | 81 | 1020.1 |
| 20260901093957 | 64 | 0 | 0.0 | 0.0 | 0.00 | 0.42 | 0.00 | 83 | 1020.0 |
| 20260901092957 | 65 | 0 | 0.0 | 0.0 | 0.00 | 0.42 | 0.00 | 81 | 1019.9 |
| 20260901091958 | 64 | 0 | 0.0 | 0.0 | 0.00 | 0.42 | 0.00 | 83 | 1020.0 |
| 20260901090957 | 62 | 0 | 0.0 | 0.0 | 0.00 | 0.42 | 0.00 | 87 | 1020.0 |
| 20260901084957 | 62 | 0 | 0.0 | 0.0 | 0.00 | 0.42 | 0.00 | 89 | 1019.9 |
| 20260901083957 | 62 | 0 | 0.0 | 0.0 | 0.00 | 0.42 | 0.00 | 88 | 1019.8 |
| 20260901082957 | 61 | 0 | 0.0 | 0.0 | 0.00 | 0.42 | 0.00 | 90 | 1019.8 |
| 20260901081957 | 60 | 0 | 0.0 | 0.0 | 0.00 | 0.42 | 0.00 | 91 | 1019.8 |
| 20260901080957 | 60 | 0 | 0.0 | 0.0 | 0.00 | 0.42 | 0.00 | 91 | 1019.7 |
| 20260901075957 | 60 | 0 | 0.0 | 0.0 | 0.00 | 0.42 | 0.00 | 91 | 1019.6 |
| 20260901074957 | 60 | 0 | 0.0 | 0.0 | 0.00 | 0.42 | 0.00 | 92 | 1019.4 |
| 20260901073957 | 60 | 0 | 0.0 | 0.0 | 0.00 | 0.42 | 0.00 | 92 | 1019.3 |
| 20260901071957 | 60 | 0 | 0.0 | 0.0 | 0.00 | 0.42 | 0.00 | 93 | 1019.3 |
| 20260901070957 | 59 | 0 | 0.0 | 0.0 | 0.00 | 0.42 | 0.00 | 93 | 1019.3 |
| 20260901063957 | 58 | 0 | 0.0 | 0.0 | 0.00 | 0.42 | 0.00 | 97 | 1019.2 |
| 20260901062957 | 58 | 0 | 0.0 | 0.0 | 0.00 | 0.43 | 0.00 | 97 | 1019.3 |
| 20260901061957 | 58 | 0 | 0.0 | 0.0 | 0.00 | 0.43 | 0.00 | 98 | 1019.2 |
| 20260901060957 | 57 | 0 | 0.0 | 0.0 | 0.00 | 0.43 | 0.00 | 99 | 1019.1 |
| 20260901055957 | 57 | 0 | 0.0 | 0.0 | 0.00 | 0.43 | 0.00 | 99 | 1019.0 |
| 20260901053957 | 57 | 0 | 0.0 | 0.0 | 0.00 | 0.43 | 0.00 | 99 | 1019.0 |
| 20260901052957 | 56 | 0 | 0.0 | 0.0 | 0.00 | 0.43 | 0.00 | 99 | 1018.9 |
| 20260901051957 | 57 | 0 | 0.0 | 0.0 | 0.00 | 0.43 | 0.00 | 99 | 1018.8 |
| 20260901050957 | 57 | 0 | 0.0 | 0.0 | 0.00 | 0.43 | 0.00 | 99 | 1018.8 |
| 20260901045958 | 57 | 0 | 0.0 | 0.0 | 0.00 | 0.43 | 0.00 | 99 | 1018.7 |
| 20260901044957 | 57 | 0 | 0.0 | 0.0 | 0.00 | 0.43 | 0.00 | 99 | 1018.7 |
| 20260901043957 | 57 | 0 | 0.0 | 0.0 | 0.00 | 0.43 | 0.00 | 99 | 1018.6 |
| 20260901042958 | 57 | 0 | 0.0 | 0.0 | 0.00 | 0.43 | 0.00 | 99 | 1018.5 |
| 20260901041957 | 57 | 0 | 0.0 | 0.0 | 0.00 | 0.43 | 0.00 | 99 | 1018.5 |
| 20260901040957 | 57 | 0 | 0.0 | 0.0 | 0.00 | 0.43 | 0.00 | 98 | 1018.4 |
| 20260901035957 | 57 | 0 | 0.0 | 0.0 | 0.00 | 0.43 | 0.00 | 98 | 1018.4 |
| 20260901032957 | 57 | 0 | 0.0 | 0.0 | 0.00 | 0.43 | 0.00 | 98 | 1018.2 |
| 20260901031957 | 57 | 0 | 0.0 | 0.0 | 0.00 | 0.43 | 0.00 | 97 | 1018.2 |
| 20260901025958 | 57 | 0 | 0.0 | 0.0 | 0.00 | 0.43 | 0.00 | 98 | 1018.2 |
| 20260901024957 | 56 | 0 | 0.0 | 0.0 | 0.00 | 0.43 | 0.00 | 98 | 1018.2 |
| 20260901023958 | 56 | 0 | 0.0 | 0.0 | 0.00 | 0.43 | 0.00 | 98 | 1018.2 |
| 20260901022957 | 56 | 0 | 0.0 | 0.0 | 0.00 | 0.43 | 0.00 | 98 | 1018.3 |
| 20260901021957 | 56 | 0 | 0.0 | 0.0 | 0.00 | 0.43 | 0.00 | 97 | 1018.3 |
| 20260901020957 | 56 | 0 | 0.0 | 0.0 | 0.00 | 0.43 | 0.00 | 97 | 1018.2 |
| 20260901015957 | 56 | 0 | 0.0 | 0.0 | 0.00 | 0.43 | 0.00 | 97 | 1018.2 |
| 20260901013958 | 56 | 0 | 0.0 | 0.0 | 0.00 | 0.43 | 0.00 | 97 | 1018.2 |
| 20260901013001 | 56 | 0 | 0.0 | 0.0 | 0.00 | 0.43 | 0.00 | 97 | 1018.2 |
| 20260901012004 | 56 | 0 | 0.0 | 0.0 | 0.00 | 0.43 | 0.00 | 97 | 1018.2 |
| 20260901011021 | 56 | 0 | 0.0 | 0.0 | 0.00 | 0.43 | 0.00 | 97 | 1018.2 |
| 20260901010022 | 56 | 0 | 0.0 | 0.0 | 0.00 | 0.43 | 0.00 | 96 | 1018.2 |